SHIYAN 30-04

operational
NORAD ID: 68140 Int'l Des: 2026-048B Country: PRC
LEOCIRCULAR

Über SHIYAN 30-04

Beschreibung wird geladen...

Live-Position

3D-Globus wird geladen...

Nächste Überflüge

Höhenverlauf

Altitude vs Time

uPlot chart will show altitude changes over time

Zweizeiliger Elementsatz

1 68140U 26048B 26072.52273764 .00001146 00000-0 11182-3 0 9990
2 68140 34.9904 121.1015 0003916 305.3219 54.7120 14.92617637 75
Epoch: 13. März 2026 • Age: 30 hours

Aktueller Status

Höhe 587.6 km
Geschwindigkeit 7.57 km/s
Subsatellitenpunkt -6.83°S, 157.24°W
Typ other

Große Konstellationen

Loading constellations...